Location: Ch�risy
(50.2331°N, 2.9131°E)
Time: 23:53:24
(UTC+00:00)

COSMOS 2455 - Pass Details

Date: 17 January 2021
Orbit: 901 x 908 km, 67.1° (Epoch: 01 March)

Event Time Altitude Azimuth Distance (km) Brightness Sun altitude
Rises 19:14:41 0° 218° (SW) 3,522 6.4 -27.7°
Reaches altitude 10° 19:17:11 10° 220° (SW) 2,585 5.7 -28.1°
Maximum altitude 19:23:12 79° 307° (NW) 931 2.8 -29.1°
Enters shadow 19:23:38 74° 353° (N) 948 2.8 -29.2°
